Retour au catalogue

STARLINK-30120

ActifCommunicationsVLEO
NORAD 56824·PAYLOAD·🇺🇸 United States

Lancé Jun 4, 2023 depuis Cape Canaveral Space Force Station

Loading…

Prochains Passages (prochaines 24 heures)

TLE

FraisSource: CelesTrak SupGP

Époque: Sep 14, 2026, 21:21 UTC

1 56824C 23079B   26257.89006944 -.00089434  00000+0 -32398-2 0  2571
2 56824  42.9999 118.9721 0001165 267.3663 290.4482 15.27618579    15

Suivez STARLINK-30120 en temps réel avec AllMySat

Download on the App Store